Weather History for Imperial, CA

Change the Weather History Date:

Thursday, January 3, 2013

  Actual Average Record
Temperature  
Mean Temperature 49 °F -  
Max Temperature 64 °F 65 °F 80 °F (1969)
Min Temperature 34 °F 40 °F 27 °F (1960)
Degree Days  
Heating Degree Days 16    
Moisture  
Dew Point 18 °F    
Average Humidity 35    
Maximum Humidity 59    
Minimum Humidity 13    
Precipitation  
Precipitation 0.00 in - - ()
Sea Level Pressure  
Sea Level Pressure 30.16 in    
Wind  
Wind Speed 6 mph (WNW)    
Max Wind Speed 10 mph    
Max Gust Speed -    
Visibility 10 miles    
Events      
Averages and records for this station are not official NWS values.
T = Trace of Precipitation, MM = Missing Value Source: NWS Daily Summary

Daily Weather History Graph

Daily Weather History Graph

Search for Another Location

Airport:

Trip Planner

Search our weather history database for the weather conditions in past years. The results will help you decide how hot, cold, wet, or windy it might be!

Date:

Astronomy

Jan. 03, 2013 Rise Set
Actual Time 6:45 AM PST 4:48 PM PST
Civil Twilight 6:18 AM PST 5:16 PM PST
Nautical Twilight 5:47 AM PST 5:46 PM PST
Astronomical Twilight 5:17 AM PST 6:16 PM PST
Moon 11:05 PM PST (1/3) 10:20 AM PST (1/3)
Length of Visible Light 10h 57m
Length of Day
10h 03m
Waning Gibbous, 64% of the Moon is Illuminated
Jan 3
Waning Gibbous
Jan 4
Last Quarter
Jan 11
New
Jan 18
First Quarter
Jan 26
Full

Hourly Weather History & Observations

Time (PST) Temp. Windchill Dew Point Humidity Pressure Visibility Wind Dir Wind Speed Gust Speed Precip Events Conditions
12:53 AM 37.0 °F 32.4 °F 19.9 °F 50% 30.08 in 10.0 mi West 5.8 mph - N/A   Clear
1:53 AM 37.0 °F 31.6 °F 19.9 °F 50% 30.08 in 10.0 mi WSW 6.9 mph - N/A   Clear
2:53 AM 35.1 °F 30.1 °F 19.9 °F 54% 30.07 in 10.0 mi West 5.8 mph - N/A   Clear
3:53 AM 35.1 °F 30.1 °F 19.9 °F 54% 30.08 in 10.0 mi West 5.8 mph - N/A   Clear
4:53 AM 34.0 °F - 19.9 °F 56% 30.09 in 10.0 mi Calm Calm - N/A   Clear
5:53 AM 34.0 °F 28.8 °F 21.0 °F 59% 30.11 in 10.0 mi WSW 5.8 mph - N/A   Clear
6:53 AM 35.1 °F 29.3 °F 19.0 °F 52% 30.14 in 10.0 mi WSW 6.9 mph - N/A   Clear
7:53 AM 39.0 °F 34.0 °F 23.0 °F 53% 30.17 in 10.0 mi West 6.9 mph - N/A   Clear
8:53 AM 48.9 °F - 26.1 °F 41% 30.19 in 10.0 mi WSW 3.5 mph - N/A   Clear
9:53 AM 57.0 °F - 25.0 °F 29% 30.20 in 10.0 mi East 6.9 mph - N/A   Clear
10:53 AM 62.1 °F - 17.1 °F 18% 30.19 in 10.0 mi ENE 6.9 mph - N/A   Clear
11:53 AM 64.0 °F - 12.9 °F 14% 30.17 in 10.0 mi NNE 6.9 mph - N/A   Clear
12:53 PM 64.0 °F - 12.9 °F 14% 30.14 in 10.0 mi NNW 5.8 mph - N/A   Clear
1:53 PM 64.9 °F - 14.0 °F 14% 30.14 in 10.0 mi North 9.2 mph - N/A   Clear
2:53 PM 64.9 °F - 12.9 °F 13% 30.14 in 10.0 mi NNW 9.2 mph - N/A   Clear
3:53 PM 64.0 °F - 10.9 °F 13% 30.15 in 10.0 mi NE 10.4 mph - N/A   Clear
4:53 PM 60.1 °F - 12.9 °F 16% 30.16 in 10.0 mi NNE 6.9 mph - N/A   Clear
5:53 PM 55.9 °F - 12.9 °F 18% 30.17 in 10.0 mi NE 5.8 mph - N/A   Clear
6:53 PM 48.0 °F - 17.1 °F 29% 30.19 in 10.0 mi WNW 4.6 mph - N/A   Clear
7:53 PM 43.0 °F 39.5 °F 18.0 °F 37% 30.19 in 10.0 mi WSW 5.8 mph - N/A   Clear
8:53 PM 42.1 °F 40.2 °F 19.0 °F 40% 30.21 in 10.0 mi West 3.5 mph - N/A   Clear
9:53 PM 39.9 °F 35.1 °F 17.1 °F 40% 30.22 in 10.0 mi WSW 6.9 mph - N/A   Clear
10:53 PM 39.0 °F 35.7 °F 18.0 °F 43% 30.22 in 10.0 mi Variable 4.6 mph - N/A   Clear
11:53 PM 39.0 °F 34.0 °F 16.0 °F 39% 30.22 in 10.0 mi WSW 6.9 mph - N/A   Clear